TimeMDT,TemperatureF,Dew PointF,Humidity,Sea Level PressureIn,VisibilityMPH,Wind Direction,Wind SpeedMPH,Gust SpeedMPH,PrecipitationIn,Events,Conditions,WindDirDegrees,DateUTC
12:53 AM,34.0,28.0,79,29.96,10.0,Calm,Calm,-,N/A,,Clear,0,2013-04-21 06:53:00
1:53 AM,30.9,28.0,89,29.97,10.0,ENE,5.8,-,N/A,,Clear,60,2013-04-21 07:53:00
2:53 AM,30.0,27.0,88,29.97,10.0,NNE,4.6,-,N/A,,Clear,20,2013-04-21 08:53:00
3:53 AM,28.9,26.1,89,29.99,10.0,NE,6.9,-,N/A,,Clear,40,2013-04-21 09:53:00
4:53 AM,28.9,26.1,89,30.01,10.0,North,4.6,-,N/A,,Clear,10,2013-04-21 10:53:00
5:53 AM,26.1,24.1,92,30.05,10.0,ENE,4.6,-,N/A,,Clear,60,2013-04-21 11:53:00
6:53 AM,28.0,24.1,85,30.06,10.0,NE,3.5,-,N/A,,Clear,40,2013-04-21 12:53:00
7:53 AM,35.1,28.9,78,30.06,10.0,East,3.5,-,N/A,,Clear,90,2013-04-21 13:53:00
8:53 AM,44.1,30.0,58,30.02,10.0,East,4.6,-,N/A,,Clear,80,2013-04-21 14:53:00
9:53 AM,52.0,27.0,38,30.00,10.0,ENE,4.6,-,N/A,,Clear,60,2013-04-21 15:53:00
10:53 AM,57.0,19.9,24,29.99,-9999.0,SE,8.1,-,N/A,,Clear,130,2013-04-21 16:53:00
11:53 AM,59.0,17.1,20,29.98,-9999.0,SE,8.1,-,N/A,,Clear,130,2013-04-21 17:53:00
12:53 PM,62.1,16.0,17,29.94,-9999.0,Variable,3.5,-,N/A,,Clear,0,2013-04-21 18:53:00
1:53 PM,62.1,15.1,16,29.92,-9999.0,SSE,9.2,-,N/A,,Clear,160,2013-04-21 19:53:00
2:53 PM,64.0,12.9,14,29.89,-9999.0,South,5.8,-,N/A,,Clear,170,2013-04-21 20:53:00
3:53 PM,66.9,12.9,12,29.86,-9999.0,South,15.0,19.6,N/A,,Partly Cloudy,180,2013-04-21 21:53:00
4:53 PM,64.0,15.1,15,29.86,-9999.0,SSW,13.8,20.7,N/A,,Mostly Cloudy,210,2013-04-21 22:53:00
5:53 PM,64.9,14.0,14,29.84,-9999.0,South,15.0,-,N/A,,Partly Cloudy,170,2013-04-21 23:53:00
6:53 PM,64.0,10.9,13,29.84,-9999.0,SSW,8.1,-,N/A,,Clear,200,2013-04-22 00:53:00
7:53 PM,59.0,3.9,11,29.86,-9999.0,West,15.0,-,N/A,,Clear,280,2013-04-22 01:53:00
8:53 PM,57.9,5.0,12,29.85,-9999.0,WNW,18.4,-,N/A,,Clear,290,2013-04-22 02:53:00
9:53 PM,59.0,3.0,11,29.85,-9999.0,WNW,18.4,-,N/A,,Clear,300,2013-04-22 03:53:00
10:53 PM,55.9,5.0,13,29.83,-9999.0,NW,16.1,-,N/A,,Clear,320,2013-04-22 04:53:00
11:53 PM,54.0,5.0,14,29.83,-9999.0,NNW,17.3,24.2,N/A,,Clear,330,2013-04-22 05:53:00